Good Hope, IL

1:15 PM CDT on July 23, 2016 (GMT -0500)
Macomb Municipal

Weather History for KMQB - May, 2013

Change the Weather History Date:

Sunday, May 26, 2013

  Actual Average (KBRL) Record (KBRL)
Temperature  
Mean Temperature 60 °F 67 °F  
Max Temperature 68 °F 78 °F 96 °F (1926)
Min Temperature 52 °F 56 °F 37 °F (1901)
Degree Days  
Heating Degree Days 6 2  
Month to date heating degree days 116  
Since 1 July heating degree days 5578  
Cooling Degree Days 0 4  
Month to date cooling degree days 60  
Year to date cooling degree days 80  
Growing Degree Days 10 (Base 50)    
Moisture  
Dew Point 57 °F    
Average Humidity 91    
Maximum Humidity 99    
Minimum Humidity 79    
Precipitation  
Precipitation 0.00 in 0.15 in 1.76 in (2013)
Month to date precipitation 4.11  
Year to date precipitation 13.52  
Sea Level Pressure  
Sea Level Pressure 30.16 in    
Wind  
Wind Speed 12 mph (ESE)    
Max Wind Speed 20 mph    
Max Gust Speed 26 mph    
Visibility 9 miles    
Events Rain , Thunderstorm    
T = Trace of Precipitation, MM = Missing Value Source: NWS Daily Summary

Daily Weather History Graph

Daily Weather History Graph

Search for Another Location

Airport or City:

Trip Planner

Search our weather history database for the weather conditions in past years. The results will help you decide how hot, cold, wet, or windy it might be!

Date:

Astronomy

May. 26, 2013 Rise Set
Actual Time 5:37 AM CDT 8:22 PM CDT
Civil Twilight 5:05 AM CDT 8:54 PM CDT
Nautical Twilight 4:25 AM CDT 9:35 PM CDT
Astronomical Twilight 3:39 AM CDT 10:21 PM CDT
Moon 10:10 PM CDT (5/26) 7:06 AM CDT (5/26)
Length of Visible Light 15h 49m
Length of Day
14h 45m
Waning Gibbous, 96% of the Moon is Illuminated
May 26
Waning Gibbous
May 31
Last Quarter
Jun 8
New
Jun 16
First Quarter
Jun 23
Full

Hourly Weather History & Observations

Time (CDT) Temp. Dew Point Humidity Pressure Visibility Wind Dir Wind Speed Gust Speed Precip Events Conditions
12:15 AM 54.9 °F 49.5 °F 82% 30.25 in 10.0 mi ESE 13.8 mph - N/A   Overcast
12:35 AM 55.0 °F 49.6 °F 82% 30.25 in 10.0 mi East 10.4 mph - N/A   Overcast
12:55 AM 54.9 °F 49.6 °F 83% 30.25 in 10.0 mi East 9.2 mph - N/A   Overcast
1:15 AM 54.9 °F 50.2 °F 84% 30.24 in 10.0 mi ESE 8.1 mph - N/A Thunderstorm Overcast
1:35 AM 54.7 °F 50.2 °F 85% 30.23 in 10.0 mi ESE 9.2 mph - N/A   Overcast
1:55 AM 54.7 °F 50.0 °F 84% 30.22 in 10.0 mi ESE 9.2 mph - N/A Thunderstorm Thunderstorm
2:15 AM 54.5 °F 50.4 °F 86% 30.22 in 10.0 mi ESE 8.1 mph - N/A Rain , Thunderstorm Light Thunderstorms and Rain
2:35 AM 54.5 °F 50.4 °F 86% 30.22 in 10.0 mi ESE 10.4 mph - N/A Thunderstorm Thunderstorm
2:55 AM 54.3 °F 50.9 °F 88% 30.22 in 5.0 mi ESE 10.4 mph - N/A Rain , Thunderstorm Heavy Thunderstorms and Rain
3:15 AM 52.7 °F 51.8 °F 97% 30.22 in 5.0 mi ESE 8.1 mph - N/A Rain , Thunderstorm Light Thunderstorms and Rain
3:35 AM 52.7 °F 51.8 °F 97% 30.20 in 7.0 mi SE 13.8 mph - N/A Rain , Thunderstorm Thunderstorms and Rain
3:55 AM 53.1 °F 52.2 °F 97% 30.24 in 10.0 mi NNE 10.4 mph - N/A Rain , Thunderstorm Light Thunderstorms and Rain
4:15 AM 53.1 °F 52.3 °F 97% 30.22 in 5.0 mi ESE 11.5 mph - N/A Rain , Thunderstorm Thunderstorms and Rain
4:35 AM 53.1 °F 52.3 °F 97% 30.21 in 7.0 mi ESE 13.8 mph - N/A Rain , Thunderstorm Light Thunderstorms and Rain
4:55 AM 53.2 °F 52.7 °F 98% 30.20 in 5.0 mi SE 13.8 mph 18.4 mph N/A Rain , Thunderstorm Thunderstorms and Rain
5:15 AM 53.2 °F 52.7 °F 98% 30.18 in 10.0 mi SE 19.6 mph 25.3 mph N/A Rain , Thunderstorm Light Thunderstorms and Rain
5:35 AM 53.6 °F 52.7 °F 97% 30.19 in 10.0 mi SE 18.4 mph 26.5 mph N/A Rain , Thunderstorm Light Thunderstorms and Rain
5:55 AM 53.8 °F 53.1 °F 97% 30.20 in 10.0 mi ESE 17.3 mph - N/A Thunderstorm Thunderstorm
6:15 AM 54.1 °F 53.6 °F 98% 30.20 in 10.0 mi ESE 10.4 mph - N/A Thunderstorm Thunderstorm
6:35 AM 54.5 °F 53.8 °F 97% 30.21 in 7.0 mi East 12.7 mph - N/A Thunderstorm Thunderstorm
6:55 AM 54.5 °F 54.0 °F 98% 30.20 in 7.0 mi ESE 12.7 mph - N/A Thunderstorm Overcast
7:15 AM 54.5 °F 54.0 °F 98% 30.22 in 7.0 mi ENE 9.2 mph - N/A Thunderstorm Overcast
7:35 AM 54.7 °F 54.1 °F 98% 30.21 in 7.0 mi East 11.5 mph - N/A Thunderstorm Overcast
7:55 AM 54.9 °F 54.3 °F 98% 30.21 in 4.0 mi East 12.7 mph - N/A Rain , Thunderstorm Light Thunderstorms and Rain
8:15 AM 54.9 °F 54.5 °F 99% 30.22 in 5.0 mi East 10.4 mph - N/A Rain , Thunderstorm Light Thunderstorms and Rain
8:35 AM 54.9 °F 54.5 °F 99% 30.25 in 4.0 mi NE 11.5 mph - N/A Thunderstorm Overcast
8:55 AM 54.7 °F 54.1 °F 98% 30.25 in 4.0 mi ENE 12.7 mph - N/A Rain , Thunderstorm Rain
9:15 AM 54.7 °F 54.1 °F 98% 30.24 in 5.0 mi ESE 15.0 mph - N/A Rain , Thunderstorm Light Thunderstorms and Rain
9:35 AM 54.9 °F 54.5 °F 99% 30.22 in 10.0 mi SSE 15.0 mph - N/A   Overcast
9:55 AM 55.2 °F 54.7 °F 98% 30.25 in 10.0 mi East 10.4 mph - N/A Thunderstorm Overcast
10:15 AM 55.4 °F 54.7 °F 97% 30.23 in 10.0 mi ESE 12.7 mph - N/A   Overcast
10:35 AM 55.4 °F 54.9 °F 98% 30.22 in 7.0 mi ESE 10.4 mph - N/A   Overcast
10:55 AM 56.1 °F 55.6 °F 98% 30.22 in 7.0 mi ESE 11.5 mph - N/A   Overcast
11:15 AM 56.7 °F 56.3 °F 99% 30.21 in 7.0 mi ESE 16.1 mph 20.7 mph N/A   Overcast
11:35 AM 57.2 °F 56.7 °F 98% 30.20 in 10.0 mi ESE 16.1 mph - N/A   Overcast
11:55 AM 59.2 °F 58.5 °F 97% 30.20 in 10.0 mi SE 12.7 mph - N/A   Overcast
12:15 PM 59.9 °F 59.2 °F 97% 30.19 in 10.0 mi SE 17.3 mph 20.7 mph N/A   Overcast
12:35 PM 60.8 °F 59.5 °F 96% 30.19 in 10.0 mi SE 16.1 mph 23.0 mph N/A   Mostly Cloudy
12:55 PM 62.2 °F 59.0 °F 89% 30.18 in 10.0 mi SE 12.7 mph 20.7 mph N/A   Mostly Cloudy
1:15 PM 62.6 °F 58.6 °F 87% 30.17 in 10.0 mi SSE 15.0 mph - N/A   Scattered Clouds
1:35 PM 63.7 °F 58.5 °F 83% 30.16 in 10.0 mi SSE 16.1 mph 23.0 mph N/A   Scattered Clouds
1:55 PM 64.2 °F 58.5 °F 82% 30.15 in 10.0 mi SSE 16.1 mph 23.0 mph N/A   Clear
2:15 PM 64.4 °F 57.9 °F 79% 30.14 in 10.0 mi SSE 16.1 mph - N/A   Scattered Clouds
2:35 PM 64.9 °F 59.4 °F 82% 30.15 in 10.0 mi SE 13.8 mph - N/A   Mostly Cloudy
2:55 PM 65.3 °F 59.2 °F 81% 30.15 in 10.0 mi SE 12.7 mph - N/A   Overcast
3:15 PM 65.1 °F 59.7 °F 83% 30.13 in 10.0 mi SE 15.0 mph - N/A Thunderstorm Overcast
3:35 PM 65.3 °F 60.3 °F 84% 30.12 in 10.0 mi SE 15.0 mph - N/A Thunderstorm Overcast
3:55 PM 66.2 °F 61.3 °F 84% 30.11 in 10.0 mi SE 12.7 mph - N/A   Overcast
4:15 PM 67.1 °F 62.2 °F 84% 30.11 in 10.0 mi ESE 13.8 mph 18.4 mph N/A   Overcast
4:35 PM 66.4 °F 61.5 °F 84% 30.10 in 10.0 mi ESE 15.0 mph - N/A   Overcast
4:55 PM 66.6 °F 61.7 °F 84% 30.08 in 10.0 mi SE 13.8 mph - N/A   Mostly Cloudy
5:15 PM 67.3 °F 61.7 °F 82% 30.09 in 10.0 mi ESE 17.3 mph - N/A Thunderstorm Mostly Cloudy
5:35 PM 67.5 °F 62.1 °F 83% 30.09 in 10.0 mi ESE 13.8 mph - N/A   Overcast
5:55 PM 67.8 °F 62.2 °F 82% 30.08 in 10.0 mi ESE 12.7 mph - N/A   Overcast
6:15 PM 67.6 °F 61.9 °F 82% 30.07 in 10.0 mi ESE 11.5 mph - N/A Thunderstorm Overcast
6:35 PM 67.6 °F 62.1 °F 82% 30.07 in 10.0 mi ESE 11.5 mph - N/A   Overcast
6:55 PM 67.1 °F 61.7 °F 83% 30.06 in 10.0 mi ESE 12.7 mph - N/A   Overcast
7:15 PM 66.7 °F 61.5 °F 83% 30.06 in 10.0 mi East 10.4 mph - N/A   Overcast
7:35 PM 66.2 °F 61.2 °F 84% 30.05 in 10.0 mi East 12.7 mph - N/A   Mostly Cloudy
7:55 PM 65.7 °F 61.2 °F 85% 30.05 in 10.0 mi ESE 11.5 mph - N/A   Mostly Cloudy
8:15 PM 65.5 °F 61.2 °F 86% 30.05 in 10.0 mi ESE 9.2 mph - N/A   Overcast
8:35 PM 65.3 °F 61.3 °F 87% 30.04 in 10.0 mi ESE 9.2 mph - N/A   Overcast
8:55 PM 65.3 °F 61.7 °F 88% 30.05 in 10.0 mi ESE 9.2 mph - N/A   Overcast
9:15 PM 64.9 °F 61.7 °F 89% 30.05 in 10.0 mi East 8.1 mph - N/A   Overcast
9:35 PM 64.6 °F 61.7 °F 90% 30.06 in 10.0 mi East 9.2 mph - N/A   Overcast
9:55 PM 64.6 °F 61.0 °F 88% 30.09 in 7.0 mi NNE 19.6 mph 23.0 mph N/A Rain , Thunderstorm Heavy Thunderstorms and Rain
10:15 PM 62.1 °F 61.0 °F 96% 30.07 in 7.0 mi ENE 17.3 mph - N/A Rain , Thunderstorm Light Thunderstorms and Rain
10:35 PM 61.9 °F 61.0 °F 97% 30.08 in 10.0 mi ENE 13.8 mph - N/A Thunderstorm Overcast
10:55 PM 61.7 °F 61.0 °F 97% 30.06 in 10.0 mi East 18.4 mph 26.5 mph N/A   Overcast
11:15 PM 61.3 °F 60.8 °F 98% 30.05 in 10.0 mi East 15.0 mph - N/A   Overcast
11:35 PM 61.2 °F 60.4 °F 97% 30.05 in 10.0 mi East 18.4 mph - N/A Thunderstorm Thunderstorm
11:55 PM 61.2 °F 60.4 °F 97% 30.06 in 10.0 mi East 17.3 mph - N/A   Overcast